Regional Weather Roundup
Issued by NWS

Home | Current Version | Previous Version | Graphics & Text | Print | Product List | Glossary On
Versions: 1 2 3 4 5 6 7 8 9 10 11 12 13 14 15 16 17 18 19 20 21 22 23 24 25 26 27 28 29 30 31 32 33 34 35 36 37 38 39 40 41 42 43 44 45 46 47 48 49 50
000
ASUS45 KPSR 032110
RWRAZ

ARIZONA HOURLY REGIONAL WEATHER ROUNDUP
NATIONAL WEATHER SERVICE PHOENIX AZ
200 PM MST MON AUG 03 2015

NOTE: FAIR INDICATES FEW OR NO CLOUDS BELOW 12,000 FEET WITH NO
SIGNIFICANT WEATHER AND/OR OBSTRUCTIONS TO VISIBILITY.

AZZ001>003-036-032200-
NORTHWEST ARIZONA

CITY           SKY/WX    TMP DP  RH WIND       PRES   REMARKS
BULLHEAD CITY  SUNNY    109  41  10 S20       29.75F HX 103
KINGMAN        SUNNY     99  43  14 S18G26    30.00S
$$

AZZ004>008-015-016-018-032200-
NORTH CENTRAL ARIZONA

CITY           SKY/WX    TMP DP  RH WIND       PRES   REMARKS
GRAND CANYON   MOSUNNY   85  41  21 SW9G16    30.24F
WILLIAMS       MOSUNNY   82  39  21 SW9G20    30.33F
PRESCOTT       PTSUNNY   90  45  21 SW14G21   30.13F
FLAGSTAFF      SUNNY     80  35  19 VRB7      30.30F
PAYSON         SUNNY     90  41  18 W9        30.16F
PAGE           SUNNY     89  53  29 VRB3      30.03F
$$

AZZ009>014-017-032200-
NORTHEAST ARIZONA

CITY           SKY/WX    TMP DP  RH WIND       PRES   REMARKS
WINSLOW        MOSUNNY   90  46  21 CALM      30.11F
SAINT JOHNS    SUNNY     87  38  17 W14       30.18F
SHOW LOW       MOSUNNY   79  41  25 N3        30.25F
$$

AZZ023-032200-
GREATER PHOENIX AREA

CITY           SKY/WX    TMP DP  RH WIND       PRES   REMARKS
PHOENIX        MOSUNNY  107  46  13 NW9       29.81F HX 103
BUCKEYE        SUNNY    106  45  12 S9        29.82F HX 101
GLENDALE       MOSUNNY  106  46  13 SE6       29.83F HX 102
LUKE AFB       SUNNY    106  48  14 SE6       29.80F HX 103
DEER VALLEY    SUNNY    105  48  14 SW7       29.84F HX 101
SCOTTSDALE     SUNNY    103  45  14 S6        29.86F
MESA-FALCON    MOSUNNY  104  50  16 W6        29.84F HX 101
MESA-GATEWAY   MOSUNNY  104  52  17 NW5       29.86F HX 101
CHANDLER       MOSUNNY  104  48  15 SW7       29.83F HX 100
$$

AZZ027-028-032200-
SOUTHWEST MARICOPA COUNTY AND PINAL COUNTY

CITY           SKY/WX    TMP DP  RH WIND       PRES   REMARKS
CASA GRANDE    SUNNY    106  50  15 W6        29.84F HX 103
GILA BEND      SUNNY    108  44  11 W12       29.79F HX 103
$$

AZZ503-504-507>509-032200-
SOUTHEAST ARIZONA

CITY           SKY/WX    TMP DP  RH WIND       PRES   REMARKS
TUCSON         SUNNY    100  48  17 N5        29.95F
DAVIS-MONTHAN  SUNNY    100  50  18 NW6       29.93F
NOGALES        MOSUNNY   95  54  25 W6        30.04F
SIERRA VISTA   MOSUNNY   90  50  25 VRB5      30.11F
DOUGLAS        MOSUNNY   94  50  22 W8        30.05F
SAFFORD        MOSUNNY  101  44  14 W7G24     29.94F
$$

AZZ020-021-025-026-031-032200-
SOUTHWEST ARIZONA

CITY           SKY/WX    TMP DP  RH WIND       PRES   REMARKS
YUMA           MOSUNNY  110  54  15 S9        29.74F HX 108
$$

CAZ031-033-041-043-047-048-061-032200-
SOUTHERN CALIFORNIA

CITY           SKY/WX    TMP DP  RH WIND       PRES   REMARKS
DOWNTOWN L.A.  PTSUNNY   78  65  63 CALM      29.90R
L.A. AIRPORT   PTSUNNY   73  65  75 W13       29.91F
SAN DIEGO      MOSUNNY   78  62  57 W9        29.91F
BURBANK        PTSUNNY   85  63  47 S10       29.89S
ONTARIO        PTSUNNY   91  56  30 W10       29.89F
RIVERSIDE      PTSUNNY   93  58  30 W7        29.88F
PALM SPRINGS   SUNNY    106  48  14 MISG      29.78F HX 102
EL CENTRO NAS  MOSUNNY  109  46  12 CALM      29.73F HX 105
IMPERIAL       SUNNY    107  49  14 CALM      29.71F HX 104
BLYTHE         SUNNY    108  48  13 SE10      29.75F HX 104
NEEDLES        SUNNY    112  40   9 SE10G23   29.76F HX 106
$$

NVZ020-UTZ003-032200-
SOUTHERN NEVADA-UTAH

CITY           SKY/WX    TMP DP  RH WIND       PRES   REMARKS
LAS VEGAS      MOSUNNY  104  33   8 SW8       29.80F
SALT LAKE CITY LGT RAIN  65  58  78 NW3       30.15R
$$

NMZ009-TXZ055-032200-
NEW MEXICO-WEST TEXAS

CITY           SKY/WX    TMP DP  RH WIND       PRES   REMARKS
ALBUQUERQUE    MOSUNNY   87  46  24 N13       30.14F
EL PASO        MOSUNNY   92  58  31 NW8       30.00F
$$


........................KEY........................
SKY/WX - SKY CONDITION/WEATHER
TMP    - TEMPERATURE IN FAHRENHEIT
DP     - DEW POINT IN FAHRENHEIT
RH     - RELATIVE HUMIDITY IN PERCENT
WIND   - DIRECTION AND SPEED IN MILES PER HOUR (MPH)
VRB    - VARIABLE WIND DIRECTION
PRES   - MEAN SEA LEVEL PRESSURE IN INCHES OF MERCURY
         F - FALLING PRESSURE   R - RISING PRESSURE
         S - STEADY PRESSURE
VSB    - VISIBILITY IN MILES
HX     - HEAT INDEX IN FAHRENHEIT
WCI    - WIND CHILL INDEX IN FAHRENHEIT
TC     - TEMPERATURE IN CELSIUS WHICH IS ALSO KNOWN AS
         TEMPERATURE IN CENTIGRADE
AFB    - AIR FORCE BASE
         LUKE AFB IS LUKE AIR FORCE BASE
         DAVIS-MONTHAN IS DAVIS-MONTHAN AIR FORCE BASE
NAS    - NAVAL AIR STATION
         EL CENTRO NAS IS EL CENTRO NAVAL AIR STATION
N/A    - NOT AVAILABLE




USA.gov is the U.S. government's official web portal to all federal, state and local government web resources and services.